EW1833 Weather Reports


Display with metric or nautical units.
time (UTC)temp
F
wind
direction
speed
MPH
gust
MPH
rain 1hr
in
rain 24hr
in
rain mn
in
humidity
%
barometer
mb
20191019120010 42 136 0.0 3.0 0.00 0.02 0.01 88 1014.5
20191019114511 42 110 0.0 7.0 0.00 0.02 0.01 88 1014.6
20191019113021 42 92 0.0 5.0 0.01 0.02 0.01 88 1014.8
20191019111505 42 111 0.0 5.0 0.01 0.02 0.01 88 1014.9
20191019110008 42 115 0.0 8.0 0.01 0.02 0.01 88 1014.7
20191019104503 42 132 0.0 4.0 0.01 0.02 0.01 88 1014.7
20191019103001 42 115 0.0 2.0 0.00 0.01 0.00 88 1014.7
20191019101638 42 68 0.0 0.0 0.00 0.01 0.00 88 1015.0
20191019100247 42 107 0.0 1.0 0.00 0.01 0.00 88 1015.0
20191019094659 42 142 0.0 0.0 0.00 0.01 0.00 87 1014.9
20191019093142 42 95 0.0 3.0 0.00 0.01 0.00 87 1014.8
20191019091630 42 68 0.0 5.0 0.00 0.01 0.00 87 1014.6
20191019090126 42 117 0.0 5.0 0.00 0.01 0.00 86 1014.7
20191019084634 42 75 0.0 6.0 0.00 0.02 0.00 86 1014.7
20191019083139 42 74 0.0 3.0 0.00 0.02 0.00 86 1014.8
20191019081729 42 114 0.0 7.0 0.00 0.02 0.00 86 1014.8
20191019080147 43 152 0.0 4.0 0.00 0.02 0.00 86 1014.9
20191019074607 43 90 0.0 5.0 0.00 0.02 0.00 86 1015.1
20191019073119 43 101 0.0 6.0 0.00 0.02 0.00 86 1015.2
20191019071613 43 90 0.0 3.0 0.00 0.02 0.00 86 1015.2
20191019070108 43 113 0.0 8.0 0.00 0.02 0.00 86 1015.4
20191019064602 43 130 0.0 4.0 0.00 0.02 0.00 86 1015.4
20191019063046 43 140 0.0 2.0 0.00 0.02 0.00 86 1015.3
20191019061615 43 128 0.0 9.0 0.00 0.02 0.00 86 1015.3
20191019060127 43 151 0.0 6.0 0.00 0.02 0.00 86 1015.4
20191019054627 44 75 0.0 3.0 0.00 0.02 0.00 85 1015.5
20191019053057 44 156 0.0 4.0 0.00 0.02 0.00 85 1015.6
20191019051537 44 99 0.0 5.0 0.00 0.02 0.00 85 1015.7
20191019050113 44 89 0.0 4.0 0.00 0.02 0.00 85 1015.7
20191019044606 44 106 0.0 1.0 0.00 0.02 0.00 85 1015.7
20191019043049 45 77 0.0 6.0 0.00 0.02 0.00 84 1015.8
20191019041555 45 123 0.0 7.0 0.00 0.02 0.00 84 1015.8
20191019040043 45 104 0.0 3.0 0.00 0.02 0.00 85 1015.8
20191019034534 45 88 0.0 9.0 0.00 0.02 0.02 86 1015.8
20191019033031 44 80 0.0 3.0 0.00 0.02 0.02 87 1015.8
20191019031529 44 132 0.0 5.0 0.00 0.02 0.02 87 1016.0
20191019030102 44 74 0.0 2.0 0.00 0.02 0.02 89 1016.1
20191019024523 44 150 0.0 2.0 0.00 0.02 0.02 90 1016.2
20191019023037 44 116 0.0 0.0 0.00 0.02 0.02 92 1016.2
20191019021529 44 117 0.0 1.0 0.00 0.02 0.02 93 1016.4
20191019020059 44 88 0.0 1.0 0.00 0.02 0.02 94 1016.5
20191019014523 45 123 0.0 0.0 0.00 0.02 0.02 94 1016.5
20191019013030 45 126 0.0 0.0 0.00 0.02 0.02 94 1016.4
20191019011538 44 119 0.0 0.0 0.00 0.02 0.02 93 1016.2
20191019010044 44 119 0.0 0.0 0.00 0.02 0.02 92 1016.1
20191019004529 45 119 0.0 0.0 0.00 0.02 0.02 91 1016.0
20191019003050 45 119 0.0 0.0 0.00 0.02 0.02 90 1016.2
20191019001521 46 119 0.0 0.0 0.00 0.02 0.02 90 1016.3
20191019000031 46 119 0.0 0.0 0.00 0.02 0.02 89 1016.5
20191018234551 47 119 0.0 0.0 0.00 0.02 0.02 86 1016.6
20191018233017 48 119 0.0 0.0 0.00 0.02 0.02 82 1016.5
20191018231520 49 119 0.0 0.0 0.00 0.02 0.02 78 1016.7
20191018230012 50 119 0.0 0.0 0.00 0.02 0.02 77 1016.8
20191018224510 50 119 0.0 0.0 0.00 0.02 0.02 75 1016.8
20191018223024 51 119 0.0 0.0 0.00 0.02 0.02 75 1017.0
20191018221504 52 119 0.0 0.0 0.00 0.02 0.02 71 1017.3
20191018214501 53 146 0.0 0.0 0.00 0.03 0.02 70 1017.5
20191018213210 54 144 0.0 0.0 0.00 0.03 0.02 70 1017.5
20191018213001 54 144 0.0 0.0 0.00 0.03 0.02 70 1017.5
20191018211649 54 205 0.0 1.0 0.01 0.03 0.02 69 1017.6
20191018210144 54 249 0.0 0.0 0.01 0.03 0.02 67 1018.1
20191018205001 55 236 0.0 0.0 0.01 0.03 0.02 65 1018.1
20191018203206 55 235 0.0 0.0 0.01 0.03 0.02 66 1018.1
20191018201624 55 236 0.0 1.0 0.00 0.02 0.01 67 1018.1
20191018200144 54 231 0.0 1.0 0.00 0.02 0.01 66 1018.1
20191018193126 54 259 0.0 1.0 0.00 0.02 0.01 69 1018.4
20191018191729 53 236 0.0 3.0 0.00 0.02 0.01 71 1018.5
20191018190202 52 240 0.0 1.0 0.00 0.02 0.01 72 1018.8
20191018184631 51 242 0.0 1.0 0.00 0.02 0.01 76 1019.0
20191018183112 51 271 0.0 0.0 0.00 0.02 0.01 75 1019.0
20191018181629 51 275 0.0 2.0 0.00 0.02 0.01 76 1019.1
20191018180108 51 271 0.0 0.0 0.00 0.02 0.01 75 1019.3
20191018174601 51 168 0.0 3.0 0.00 0.02 0.01 73 1019.5
20191018173121 52 232 0.0 3.0 0.00 0.02 0.01 68 1019.6
20191018171549 51 135 0.0 4.0 0.00 0.02 0.01 70 1019.7
20191018170120 51 132 0.0 0.0 0.00 0.02 0.01 70 1019.9
20191018164633 51 136 0.0 0.0 0.00 0.02 0.01 69 1020.1
20191018163114 51 181 0.0 0.0 0.00 0.02 0.01 72 1020.3
20191018161622 51 132 0.0 0.0 0.00 0.02 0.01 70 1020.2
20191018160152 51 148 0.0 0.0 0.00 0.02 0.01 76 1020.4
20191018154613 50 150 0.0 0.0 0.00 0.02 0.01 82 1020.5
20191018153044 49 94 0.0 0.0 0.00 0.02 0.01 87 1020.8
20191018151547 48 56 0.0 0.0 0.00 0.02 0.01 93 1020.8
20191018150024 47 56 0.0 2.0 0.00 0.02 0.01 97 1021.0
20191018144529 46 72 0.0 0.0 0.00 0.02 0.01 97 1021.0
20191018143021 45 73 0.0 0.0 0.00 0.02 0.01 98 1021.1
20191018141532 43 73 0.0 0.0 0.00 0.02 0.01 97 1021.1
20191018140039 41 73 0.0 0.0 0.00 0.02 0.01 97 1021.1
20191018134507 40 73 0.0 0.0 0.00 0.03 0.01 97 1020.9
20191018133018 39 73 0.0 0.0 0.00 0.03 0.01 97 1021.1
20191018131520 38 72 0.0 0.0 0.00 0.03 0.01 97 1021.0
20191018130004 38 72 0.0 0.0 0.00 0.03 0.01 97 1020.7
20191018124503 38 72 0.0 0.0 0.00 0.03 0.01 97 1020.7
20191018123200 37 72 0.0 0.0 0.00 0.03 0.01 96 1020.6
20191018121702 37 72 0.0 0.0 0.00 0.03 0.01 96 1020.5